EW7175 Weather Reports


Display with metric or nautical units.
time (UTC)temp
F
wind
direction
speed
MPH
gust
MPH
rain 1hr
in
rain 24hr
in
rain mn
in
humidity
%
barometer
mb
20260906160038 89 340 0.0 0.0 0.00 0.00 0.00 73 1012.3
20260906154540 88 65 0.0 0.0 0.00 0.00 0.00 75 1012.4
20260906153026 87 20 0.0 0.0 0.00 0.00 0.00 78 1012.5
20260906151525 87 58 0.0 0.0 0.00 0.00 0.00 79 1012.4
20260906150024 86 258 0.0 0.0 0.00 0.00 0.00 81 1012.4
20260906144519 85 281 0.0 0.0 0.00 0.00 0.00 85 1012.5
20260906143014 84 134 0.0 0.0 0.00 0.00 0.00 87 1012.5
20260906141512 83 44 0.0 0.0 0.00 0.00 0.00 88 1012.4
20260906140010 82 57 0.0 0.0 0.00 0.00 0.00 92 1012.3
20260906134505 81 57 0.0 0.0 0.00 0.00 0.00 93 1012.2
20260906133002 80 57 0.0 0.0 0.00 0.00 0.00 94 1012.1
20260906131501 80 57 0.0 0.0 0.00 0.00 0.00 94 1011.9
20260906130100 79 57 0.0 0.0 0.00 0.00 0.00 95 1011.9
20260906124600 78 57 0.0 0.0 0.00 0.00 0.00 95 1011.6
20260906123056 78 57 0.0 0.0 0.00 0.00 0.00 95 1011.4
20260906121554 78 57 0.0 0.0 0.00 0.00 0.00 94 1011.3
20260906120050 78 57 0.0 0.0 0.00 0.00 0.00 94 1011.1
20260906114551 78 57 0.0 0.0 0.00 0.00 0.00 94 1011.0
20260906113049 78 57 0.0 0.0 0.00 0.00 0.00 94 1010.7
20260906111545 78 57 0.0 0.0 0.00 0.00 0.00 94 1010.8
20260906110041 79 57 0.0 0.0 0.00 0.00 0.00 93 1010.7
20260906104540 79 57 0.0 0.0 0.00 0.00 0.00 93 1010.7
20260906103039 79 57 0.0 0.0 0.00 0.00 0.00 93 1010.6
20260906101541 79 57 0.0 0.0 0.00 0.00 0.00 93 1010.3
20260906100038 80 57 0.0 0.0 0.00 0.00 0.00 92 1010.2
20260906094539 80 57 0.0 0.0 0.00 0.00 0.00 92 1010.3
20260906093038 80 57 0.0 0.0 0.00 0.00 0.00 92 1010.3
20260906091537 80 57 0.0 0.0 0.00 0.00 0.00 92 1010.1
20260906090036 80 57 0.0 0.0 0.00 0.00 0.00 92 1010.1
20260906084536 80 57 0.0 0.0 0.00 0.00 0.00 92 1010.0
20260906083040 80 57 0.0 0.0 0.00 0.00 0.00 91 1010.1
20260906081538 80 57 0.0 0.0 0.00 0.00 0.00 91 1010.1
20260906080035 80 57 0.0 0.0 0.00 0.00 0.00 91 1010.1
20260906074535 81 57 0.0 0.0 0.00 0.00 0.00 91 1010.3
20260906073034 81 57 0.0 0.0 0.00 0.00 0.00 90 1010.4
20260906071529 81 57 0.0 0.0 0.00 0.00 0.00 90 1010.5
20260906070027 80 57 0.0 0.0 0.00 0.00 0.00 90 1010.5
20260906064532 80 57 0.0 0.0 0.00 0.00 0.00 91 1010.6
20260906063021 80 57 0.0 0.0 0.00 0.00 0.00 91 1010.6
20260906061519 80 57 0.0 0.0 0.00 0.00 0.00 91 1010.7
20260906060017 80 57 0.0 0.0 0.00 0.00 0.00 92 1010.5
20260906054515 79 57 0.0 0.0 0.00 0.00 0.00 92 1010.6
20260906053010 79 57 0.0 0.0 0.00 0.00 0.00 92 1010.7
20260906051508 79 57 0.0 0.0 0.00 0.00 0.00 92 1010.6
20260906050016 79 57 0.0 0.0 0.00 0.00 0.00 92 1010.6
20260906044502 79 57 0.0 0.0 0.00 0.00 0.00 91 1010.6
20260906043001 79 57 0.0 0.0 0.00 0.00 0.00 91 1010.6
20260906041501 79 57 0.0 0.0 0.00 0.00 0.00 91 1010.6
20260906040100 79 57 0.0 0.0 0.00 0.00 0.00 91 1010.8
20260906034600 80 57 0.0 0.0 0.00 0.00 0.00 90 1010.8
20260906033100 80 57 0.0 0.0 0.00 0.00 0.00 90 1010.9
20260906031600 80 57 0.0 0.0 0.00 0.00 0.00 89 1010.8
20260906030129 80 57 0.0 0.0 0.00 0.00 0.00 89 1010.6
20260906024602 80 57 0.0 0.0 0.00 0.00 0.00 88 1010.5
20260906023112 81 57 0.0 0.0 0.00 0.00 0.00 88 1010.3
20260906021611 81 57 0.0 0.0 0.00 0.00 0.00 88 1010.1
20260906020101 81 43 0.0 0.0 0.00 0.00 0.00 88 1009.9
20260906014604 81 42 0.0 0.0 0.00 0.00 0.00 89 1009.7
20260906013056 81 39 0.0 0.0 0.00 0.00 0.00 89 1009.4
20260906011601 81 39 0.0 0.0 0.00 0.00 0.00 88 1009.5
20260906010055 81 39 0.0 0.0 0.00 0.00 0.00 88 1009.4
20260906004557 82 47 0.0 0.0 0.00 0.00 0.00 87 1009.7
20260906003105 82 38 0.0 4.0 0.00 0.00 0.00 85 1009.8
20260906001555 83 55 1.0 4.0 0.00 0.00 0.00 81 1009.9
20260906000054 85 61 2.0 6.0 0.00 0.00 0.00 76 1010.1
20260905234603 86 37 1.0 5.0 0.00 0.00 0.00 71 1010.1
20260905233053 86 42 0.0 2.0 0.00 0.00 0.00 71 1010.2
20260905231552 86 42 1.0 4.0 0.00 0.00 0.00 69 1010.0
20260905230053 87 34 1.0 4.0 0.00 0.00 0.00 69 1009.9
20260905224552 87 30 1.0 5.0 0.00 0.01 0.00 68 1009.8
20260905223052 88 49 0.0 0.0 0.00 0.01 0.00 69 1009.8
20260905221550 89 5 0.0 0.0 0.00 0.01 0.00 66 1009.7
20260905220052 89 174 0.0 0.0 0.00 0.01 0.00 69 1009.5
20260905214602 90 188 0.0 0.0 0.00 0.01 0.00 67 1009.5
20260905213049 91 130 0.0 0.0 0.00 0.01 0.00 65 1009.4
20260905211547 92 129 0.0 0.0 0.00 0.01 0.00 63 1009.7
20260905210048 94 154 0.0 0.0 0.00 0.01 0.00 60 1009.7
20260905204546 95 143 0.0 0.0 0.00 0.01 0.00 57 1009.5
20260905203044 98 24 0.0 0.0 0.00 0.01 0.00 49 1009.6
20260905201541 96 275 0.0 0.0 0.00 0.01 0.00 51 1009.8
20260905200044 96 261 0.0 0.0 0.00 0.01 0.00 51 1010.0
20260905194535 96 319 0.0 0.0 0.00 0.01 0.00 51 1010.1
20260905193032 96 306 0.0 0.0 0.00 0.01 0.00 51 1010.3
20260905191528 94 164 0.0 0.0 0.00 0.01 0.00 54 1010.6
20260905190025 94 173 0.0 0.0 0.00 0.01 0.00 58 1010.7
20260905184527 92 258 0.0 0.0 0.00 0.01 0.00 59 1010.8
20260905183027 91 169 0.0 0.0 0.00 0.01 0.00 62 1011.1
20260905181519 90 169 0.0 0.0 0.00 0.01 0.00 64 1011.4
20260905180018 90 169 0.0 0.0 0.00 0.01 0.00 68 1011.8
20260905174529 90 177 0.0 0.0 0.00 0.11 0.00 65 1012.1
20260905173017 90 177 0.0 0.0 0.00 0.11 0.00 66 1012.3
20260905171517 90 177 0.0 0.0 0.00 0.11 0.00 65 1012.3
20260905170017 92 304 0.0 0.0 0.00 0.11 0.00 65 1012.4
20260905164515 93 9 0.0 0.0 0.00 0.11 0.00 62 1012.4
20260905163011 90 300 0.0 0.0 0.00 0.11 0.00 67 1012.5